Location: Cortada de Papelón
(10.0378°N, 66.9528°W)
Time: 16:10:33
(UTC+00:00)

Cosmos 1340 - Pass Details

Date: 13 June 2024
Orbit: 427 x 430 km, 81.2° (Epoch: 20 July)

Event Time Altitude Azimuth Distance (km) Brightness Sun altitude
Rises 23:37:00 0° 3° (N) 2,384 6.4 -11.5°
Reaches altitude 10° 23:39:05 10° 10° (N) 1,517 5.3 -11.9°
Maximum altitude 23:42:16 44° 84° (E) 596 2.6 -12.6°
Enters shadow 23:44:23 18° 151° (SSE) 1,110 3.9 -13.1°
